Regional Weather Roundup
Issued by NWS

Home | Current Version | Previous Version | Graphics & Text | Print | Product List | Glossary On
Versions: 1 2 3 4 5 6 7 8 9 10 11 12 13 14 15 16 17 18 19 20 21 22 23 24 25 26 27 28 29 30 31 32 33 34 35 36 37 38 39 40 41 42 43 44 45 46 47 48 49 50
000
ASUS43 KMPX 171401
RWRMN
WEATHER ROUNDUP FOR MINNESOTA
NATIONAL WEATHER SERVICE TWIN CITIES/CHANHASSEN MN
800 AM CST TUE JAN 17 2017


NOTE: "FAIR" INDICATES FEW OR NO CLOUDS BELOW 12,000 FEET WITH NO
SIGNIFICANT WEATHER AND/OR OBSTRUCTIONS TO VISIBILITY. N/A MEANS
CURRENT SKY AND/OR WEATHER CONDITIONS ARE NOT AVAILABLE.

MNZ060>063-068>070-171500-
   Twin Cities Metro

CITY           SKY/WX    TMP DP  RH WIND       PRES   REMARKS
TWIN CITIES    CLOUDY    31  28  89 N9G21     29.95R WCI  23
ST PAUL        CLOUDY    31  30  96 NW7       29.96R FOG     WCI  24
CRYSTAL        CLOUDY    30  23  75 NW7       29.95R WCI  23
BLAINE         CLOUDY    30  28  93 NW7       29.95R WCI  23
LAKEVILLE      CLOUDY    28  28 100 NW6       29.93S FOG     WCI  22
EDEN PRAIRIE   CLOUDY    31  26  82 NW8       29.93S WCI  23
SOUTH ST PAUL  CLOUDY    32  31  96 N5        29.94R WCI  27
LAKE ELMO      CLOUDY    32  32 100 NW5       29.94R FOG     WCI  27
$$
MNZ001>005-007-008-013>017-022>024-027-028-171500-
   Northwest Minnesota

CITY           SKY/WX    TMP DP  RH WIND       PRES   REMARKS
BEMIDJI        CLOUDY    -4  -8  85 CALM      29.93R
HALLOCK        CLOUDY     3   0  85 SE12      29.90S WCI -13
ROSEAU         CLOUDY     1  -2  85 S5        29.90F WCI  -8
WARROAD        CLOUDY     3   0  85 SW5       29.90F WCI  -6
THIEF RVR FALL CLOUDY     3   0  87 S8        29.93F WCI -10
CROOKSTON      CLOUDY     1   0  92 S7        29.95S WCI -11
FOSSTON        CLOUDY     0  -4  85 S5        29.94S WCI -10
DETROIT LAKES  CLOUDY     3   1  92 CALM      29.96S
MOORHEAD       MIX PCPN   0  -4  85 SE5       29.98F WCI -10
PARK RAPIDS    CLOUDY    -5 -12  72 CALM      29.94S HAZE
MAHNOMEN       FAIR       1  -2  85 S6        29.95S WCI -10
$$
MNZ006-009>011-018-025>026-171500-
   North Central Minnesota

CITY           SKY/WX    TMP DP  RH WIND       PRES   REMARKS
BAUDETTE       CLOUDY     0  -4  83 S3        29.92S
FLAG ISLAND    CLOUDY     1  -2  85 SE7       29.89F WCI -11
INTL FALLS     CLOUDY    -1  -6  79 CALM      29.91F
WASKISH        CLOUDY    -2  -6  84 CALM      29.93R
BIG FORK       CLOUDY    -2  -8  78 CALM      29.93F
LONGVILLE      CLOUDY    -6  -9  84 CALM      29.95S
GRAND RAPIDS   FOG        4   1  88 CALM      29.96R VSB 3/4
CRANE LAKE     CLOUDY    -8  -9  92 CALM      29.96F
ORR            CLOUDY    -2  -6  84 CALM      29.90F
COOK           CLOUDY    -4  -8  84 CALM      29.94R
WALKER         FAIR      -1  -5  84 CALM      29.93F
$$
MNZ012-019>021-037-171500-
   Northeast Minnesota

CITY           SKY/WX    TMP DP  RH WIND       PRES   REMARKS
DULUTH         FOG       22  20  92 NW5       29.93R VSB 1/8 WCI  16
ELY            FOG       -6  -9  84 CALM      29.94R VSB 1/4
HIBBING        FOG       -1  -3  91 CALM      29.93S VSB<1/4
EVELETH        HAZE       2  -3  81 CALM      29.95S VSB<1/4
DULUTH HARBOR  CLOUDY    25  21  86 CALM      29.97R
TWO HARBORS    HAZE      28  23  80 N5        29.92S VSB 1/4 WCI  23
SILVER BAY     CLOUDY    21  21 100 CALM      29.92S FOG
GRAND MARAIS     N/A     18  16  92 N5        29.96S WCI  11
G MARAIS ARPRT CLOUDY    10   5  79 N3        29.90S
$$
MNZ029>031-032-039>041-046>048-054>057-064-171500-
   West Central Minnesota

CITY           SKY/WX    TMP DP  RH WIND       PRES   REMARKS
FERGUS FALLS   LGT SNOW   1  -2  85 CALM      30.04F
WHEATON        CLOUDY     9   7  92 CALM      30.02F
MORRIS         CLOUDY     3   1  92 CALM      29.99S FOG
ALEXANDRIA     CLOUDY     6   2  83 CALM      29.96F FOG
ELBOW LAKE     FAIR       1  -2  88 CALM      29.99S
WADENA         LGT SNOW  -4  -8  84 CALM      29.95S
GLENWOOD       CLOUDY    10   9  92 W5        29.98S WCI   2
APPLETON       CLOUDY     3   0  85 W3        30.01S FOG
ORTONVILLE     CLOUDY     3   0  85 CALM      30.00S
MADISON        CLOUDY     7   3  85 CALM      30.02S
WILLMAR        CLOUDY    21  19  93 W6        30.00S WCI  14
$$
MNZ033>034-036-042>043-049>051-058-059-171500-
   Central Minnesota

CITY           SKY/WX    TMP DP  RH WIND       PRES   REMARKS
ST CLOUD       FOG       27  27 100 NW5       29.97R VSB 1/4 WCI  22
SAUK CENTRE    FAIR      14  12  92 W8        29.98R FOG     WCI   3
PAYNESVILLE    CLOUDY    27  27 100 CALM      29.98R FOG
AITKIN         CLOUDY     0  -6  78 CALM      29.95R
PINE RIVER     CLOUDY    -2  -6  84 CALM      29.99R FOG
BRAINERD       CLOUDY     3   0  87 CALM      29.96S FOG
STAPLES        CLOUDY    -4  -8  84 CALM      29.96S FOG
LONG PRAIRIE   FAIR      10   7  85 CALM      29.96F FOG
LITTLE FALLS   FOG       23  21  93 CALM      29.98R VSB 1/2
LITCHFIELD     FOG       30  30 100 NW6       29.98R VSB 1/2 WCI  24
BUFFALO        CLOUDY    28  26  93 NW3       29.98R FOG
MAPLE LAKE     FOG       28  28 100 NW6       29.98R VSB 1/2 WCI  22
HUTCHINSON     FOG       31  31  99 NW3       29.98S VSB 1/2
$$
MNZ037-044-045-052-053-171500-
   East Central Minnesota

CITY           SKY/WX    TMP DP  RH WIND       PRES   REMARKS
PRINCETON      CLOUDY    25  21  86 NW6       29.97R WCI  18
MORA           CLOUDY    19  16  86 NW6       29.98R WCI  11
CAMBRIDGE      CLEAR     25  16  68 CALM      29.94F
RUSH CITY      PTCLDY    21  18  86 CALM      29.96S
MOOSE LAKE     CLOUDY     9   5  85 CALM      29.94R FOG
HINCKLEY       FAIR      23  19  86 CALM      29.95S
CLOQUET        FOG       16  14  93 NW5       29.94R VSB<1/4 WCI   9
MCGREGOR         N/A      1  -2  85 CALM      29.96S
$$
MNZ071>073-080-081-089-090-097-098-171500-
   Southwest Minnesota

CITY           SKY/WX    TMP DP  RH WIND       PRES   REMARKS
MONTEVIDEO     CLOUDY    16  12  86 CALM      30.03S
GRANITE FALLS  CLOUDY    20  17  86 W10       30.03S WCI   9
CANBY            N/A     11   8  87 CALM      30.01S
MARSHALL       CLOUDY    19  14  81 W7        30.01R WCI  10
REDWOOD FALLS  CLOUDY    22  18  85 NW7       30.00R WCI  13
OLIVIA         CLOUDY    21  19  93 NW10      29.99R WCI  10
PIPESTONE      FOG       14  12  92 CALM      29.98S VSB 3/4
WINDOM         CLOUDY    23  21  93 NW5       29.98R WCI  17
WORTHINGTON    CLOUDY    26  25  96 NW8       29.99R FOG     WCI  18
JACKSON        CLOUDY    25  25 100 NW6       29.97S FOG     WCI  18
TRACY          CLOUDY    23  19  85 NW8       30.00R WCI  14
SLAYTON        CLOUDY    23  23  99 NW7       29.99R FOG     WCI  15
$$
MNZ065>067-074>077-082>085-091>093-171500-
   South Central Minnesota

CITY           SKY/WX    TMP DP  RH WIND       PRES   REMARKS
MANKATO        CLOUDY    30  28  92 NW9       29.96R FOG     WCI  22
NEW ULM        CLOUDY    25  25 100 NW7       29.98S FOG     WCI  17
ST JAMES       CLOUDY    25  25 100 NW7       29.99S FOG     WCI  17
FAIRMONT       FOG       26  25  96 NW12      29.97S VSB 1/2 WCI  16
GLENCOE        CLOUDY    31  29  94 NW5       29.96R WCI  26
FARIBAULT      MIX PCPN  30  28  93 NW5       29.93S WCI  25
OWATONNA       LGT SNOW  30  28  93 NW3       29.92F VSB 3/4
WASECA         FOG       32  32 100 NW6       29.95R VSB 1   WCI  26
ALBERT LEA     FOG       30  30 100 NW3       29.92S VSB 1/4
$$
MNZ078>079-086>088-094>096-171500-
   Southeast Minnesota

CITY           SKY/WX    TMP DP  RH WIND       PRES   REMARKS
ROCHESTER      MIX PCPN  31  31 100 NW10      29.89S FOG     WCI  22
RED WING       MIX PCPN  34  30  86 W3        29.91S
STANTON        CLOUDY    33  31  93 N3        29.92S FOG
DODGE CENTER   FOG       30  30 100 CALM      29.89F VSB<1/4
WINONA         CLOUDY    34  34 100 NW5       29.90R FOG     WCI  30
AUSTIN         CLOUDY    30  30 100 N5        29.90S FOG     WCI  25
PRESTON        CLOUDY    31  31  97 N5        29.88R FOG     WCI  27
$$
ABBREVIATIONS USED IN REMARKS
   TC - TEMPERATURES IN CELSIUS
  WCI - WIND CHILL INDEX
   HX - HEAT INDEX
  VSB - VISIBILITY
$$




USA.gov is the U.S. government's official web portal to all federal, state and local government web resources and services.